Location: Cabeza de los Veneras
(40.2000°N, 5.2000°W)
Time: 12:23:11
(UTC+00:00)

USA 229 - Pass Details

Date: 18 April 2024
Orbit: 890 x 1322 km, 63.4° (Epoch: 18 May)

Event Time Altitude Azimuth Distance (km) Brightness Sun altitude
Rises 19:49:54 0° 176° (S) 3,497 6.1 -9.3°
Reaches altitude 10° 19:52:45 10° 163° (SSE) 2,587 5.4 -9.8°
Maximum altitude 19:57:33 26° 110° (ESE) 1,783 4.3 -10.6°
Drops below altitude 10° 20:02:39 10° 57° (ENE) 2,764 5.6 -11.5°
Sets 20:05:47 0° 45° (NE) 3,789 6.4 -12.0°
